Starlink 3779

operational
NORAD ID: 52281 Int'l Des: 2022-041 Owner: SPXS Country: US Constellation: starlink
LEOCIRCULAR

Über Starlink 3779

Beschreibung wird geladen...

Live-Position

3D-Globus wird geladen...

Nächste Überflüge

Höhenverlauf

Altitude vs Time

uPlot chart will show altitude changes over time

Zweizeiliger Elementsatz

1 52281U 22041W 25343.51967030 .00001900 00000-0 13747-3 0 9990
2 52281 53.2171 153.9085 0001519 84.0501 276.0664 15.08839265200756
Epoch: 9. Dez. 2025 • Age: 5 hours

Aktueller Status

Höhe 540.0 km
Geschwindigkeit 7.60 km/s
Subsatellitenpunkt 24.48°N, 166.59°W
Startdatum 21. Apr. 2022
Alter 3.6 years
Typ internet

Technische Details

Klassifizierung Payload
Masse 297.00 kg
Trockenmasse 275.00 kg
Gesamtmasse 297.00 kg
Länge 0.20 m
Durchmesser 2.80 m
Spannweite 9.00 m
Form Box + pan
Hersteller SPXS
Bus-Typ Starlink
Phasenstatus In Orbit
Besitzer/Staat SPXS/US

Große Konstellationen

Loading constellations...